QFA930 PAJN-PANC

Flight info

Callsign QFA930
Flight time 1h 28m
Altitude 36000
Route ASORT3 ASORT J541 YAK J501 JOH PTERS3
Aircraft B738/M-L/LB1

Departure

Time 2026-04-22 10:06
Airport Juneau International Airport (PAJN)

Arrival

Time 2026-04-22 11:35
Airport Ted Stevens Anchorage International Airport (PANC)
Time Latitude Longitude Altitude Speed Heading
2026-04-22 08:51 58.35846 -134.58430 30 ft 0 kts 24°
2026-04-22 09:58 58.35842 -134.58434 30 ft 2 kts 24°
2026-04-22 09:58 58.35828 -134.58449 30 ft 3 kts 37°
2026-04-22 09:58 58.35814 -134.58475 30 ft 3 kts 52°
2026-04-22 09:59 58.35804 -134.58508 30 ft 3 kts 68°
2026-04-22 09:59 58.35798 -134.58546 30 ft 3 kts 82°
2026-04-22 09:59 58.35797 -134.58586 30 ft 3 kts 95°
2026-04-22 09:59 58.35798 -134.58589 30 ft 0 kts 95°
2026-04-22 10:00 58.35794 -134.58570 30 ft 7 kts 122°
2026-04-22 10:01 58.35732 -134.58468 30 ft 16 kts 107°
2026-04-22 10:01 58.35696 -134.58220 30 ft 23 kts 106°
2026-04-22 10:01 58.35653 -134.57900 30 ft 27 kts 104°
2026-04-22 10:01 58.35602 -134.57551 30 ft 28 kts 105°
2026-04-22 10:02 58.35550 -134.57192 30 ft 29 kts 105°
2026-04-22 10:02 58.35498 -134.56822 30 ft 29 kts 105°
2026-04-22 10:02 58.35446 -134.56444 30 ft 30 kts 104°
2026-04-22 10:02 58.35392 -134.56060 30 ft 30 kts 105°
2026-04-22 10:03 58.35342 -134.55684 30 ft 25 kts 107°
2026-04-22 10:03 58.35292 -134.55550 30 ft 0 kts 171°
2026-04-22 10:03 58.35281 -134.55546 30 ft 5 kts 171°
2026-04-22 10:03 58.35230 -134.55554 30 ft 8 kts 220°
2026-04-22 10:04 58.35219 -134.55627 30 ft 2 kts 280°
2026-04-22 10:04 58.35220 -134.55630 30 ft 0 kts 281°
2026-04-22 10:05 58.35220 -134.55631 30 ft 0 kts 281°
2026-04-22 10:05 58.35226 -134.55688 30 ft 13 kts 283°
2026-04-22 10:05 58.35303 -134.56258 30 ft 77 kts 285°
2026-04-22 10:05 58.35490 -134.57598 30 ft 131 kts 285°
2026-04-22 10:06 58.35752 -134.59509 241 ft 153 kts 284°
2026-04-22 10:06 58.35947 -134.61495 819 ft 160 kts 275°
2026-04-22 10:06 58.35907 -134.63695 1300 ft 175 kts 264°
2026-04-22 10:06 58.35792 -134.66118 1761 ft 194 kts 265°
2026-04-22 10:07 58.35753 -134.68760 2512 ft 206 kts 270°
2026-04-22 10:07 58.35821 -134.71601 3223 ft 224 kts 274°
2026-04-22 10:07 58.35924 -134.74667 3944 ft 241 kts 272°
2026-04-22 10:07 58.35987 -134.77935 4813 ft 250 kts 271°
2026-04-22 10:08 58.36012 -134.81282 5809 ft 253 kts 270°
2026-04-22 10:08 58.36023 -134.84647 6805 ft 255 kts 270°
2026-04-22 10:08 58.36035 -134.88046 7793 ft 258 kts 270°
2026-04-22 10:08 58.36049 -134.91482 8762 ft 261 kts 270°
2026-04-22 10:09 58.36065 -134.94958 9713 ft 263 kts 271°
2026-04-22 10:09 58.36082 -134.98496 10441 ft 276 kts 272°
2026-04-22 10:09 58.36101 -135.02208 10920 ft 293 kts 272°
2026-04-22 10:09 58.36120 -135.06148 11633 ft 300 kts 273°
2026-04-22 10:10 58.36135 -135.10140 12547 ft 302 kts 273°
2026-04-22 10:10 58.36148 -135.14156 13493 ft 304 kts 274°
2026-04-22 10:10 58.36160 -135.18190 14455 ft 305 kts 274°
2026-04-22 10:10 58.36172 -135.22247 15418 ft 307 kts 275°
2026-04-22 10:11 58.36183 -135.26327 16401 ft 309 kts 275°
2026-04-22 10:11 58.36191 -135.30432 17360 ft 311 kts 275°
2026-04-22 10:11 58.36196 -135.34568 18275 ft 313 kts 275°
2026-04-22 10:11 58.36200 -135.38725 19159 ft 316 kts 276°
2026-04-22 10:12 58.36206 -135.42935 19978 ft 320 kts 276°
2026-04-22 10:12 58.36213 -135.47191 20801 ft 323 kts 276°
2026-04-22 10:12 58.36224 -135.51505 21580 ft 327 kts 276°
2026-04-22 10:12 58.36237 -135.55851 22335 ft 331 kts 277°
2026-04-22 10:13 58.36247 -135.60262 23069 ft 335 kts 277°
2026-04-22 10:13 58.36251 -135.64728 23748 ft 340 kts 277°
2026-04-22 10:13 58.36255 -135.69250 24438 ft 343 kts 277°
2026-04-22 10:13 58.36261 -135.73820 25106 ft 347 kts 277°
2026-04-22 10:14 58.36304 -135.78428 25672 ft 349 kts 281°
2026-04-22 10:14 58.36814 -135.82908 26193 ft 345 kts 293°
2026-04-22 10:14 58.37865 -135.86995 26815 ft 343 kts 303°
2026-04-22 10:14 58.39105 -135.90884 27452 ft 344 kts 303°
2026-04-22 10:15 58.40367 -135.94781 28014 ft 346 kts 303°
2026-04-22 10:15 58.41643 -135.98699 28542 ft 349 kts 303°
2026-04-22 10:15 58.42926 -136.02650 29045 ft 352 kts 303°
2026-04-22 10:15 58.44214 -136.06639 29517 ft 354 kts 303°
2026-04-22 10:16 58.45503 -136.10656 29980 ft 357 kts 303°
2026-04-22 10:16 58.46801 -136.14705 30434 ft 358 kts 303°
2026-04-22 10:16 58.48106 -136.18780 30853 ft 360 kts 303°
2026-04-22 10:16 58.49417 -136.22880 31239 ft 362 kts 303°
2026-04-22 10:17 58.50739 -136.27018 31488 ft 367 kts 303°
2026-04-22 10:17 58.52075 -136.31205 31787 ft 370 kts 303°
2026-04-22 10:17 58.53415 -136.35410 32151 ft 370 kts 303°
2026-04-22 10:17 58.54753 -136.39618 32540 ft 370 kts 302°
2026-04-22 10:18 58.56085 -136.43823 32922 ft 369 kts 302°
2026-04-22 10:18 58.57414 -136.48021 33295 ft 368 kts 302°
2026-04-22 10:18 58.58737 -136.52210 33675 ft 367 kts 302°
2026-04-22 10:18 58.60055 -136.56388 34034 ft 366 kts 302°
2026-04-22 10:19 58.61370 -136.60560 34350 ft 366 kts 302°
2026-04-22 10:19 58.62685 -136.64745 34613 ft 367 kts 302°
2026-04-22 10:19 58.64005 -136.68952 34861 ft 369 kts 302°
2026-04-22 10:19 58.65330 -136.73184 35080 ft 371 kts 302°
2026-04-22 10:20 58.66661 -136.77439 35316 ft 372 kts 301°
2026-04-22 10:20 58.67994 -136.81709 35522 ft 375 kts 301°
2026-04-22 10:20 58.69338 -136.86024 35748 ft 376 kts 301°
2026-04-22 10:20 58.70681 -136.90344 35955 ft 378 kts 301°
2026-04-22 10:21 58.72032 -136.94699 36152 ft 380 kts 301°
2026-04-22 10:21 58.73392 -136.99090 36241 ft 384 kts 301°
2026-04-22 10:21 58.76158 -137.08044 36248 ft 385 kts 301°
2026-04-22 10:22 58.78875 -137.16878 36249 ft 382 kts 301°
2026-04-22 10:22 58.81580 -137.25703 36250 ft 383 kts 301°
2026-04-22 10:23 58.84284 -137.34557 36250 ft 383 kts 301°
2026-04-22 10:23 58.86982 -137.43425 36250 ft 383 kts 301°
2026-04-22 10:24 58.89673 -137.52305 36249 ft 383 kts 300°
2026-04-22 10:24 58.92358 -137.61199 36250 ft 383 kts 300°
2026-04-22 10:25 58.95033 -137.70098 36250 ft 383 kts 300°
2026-04-22 10:25 58.97699 -137.79008 36250 ft 381 kts 300°
2026-04-22 10:26 59.00361 -137.87913 36251 ft 382 kts 300°
2026-04-22 10:26 59.03016 -137.96841 36251 ft 382 kts 300°
2026-04-22 10:27 59.05664 -138.05785 36253 ft 382 kts 300°
2026-04-22 10:27 59.08305 -138.14734 36253 ft 382 kts 300°
2026-04-22 10:28 59.10940 -138.23701 36254 ft 382 kts 300°
2026-04-22 10:28 59.13569 -138.32684 36254 ft 382 kts 300°
2026-04-22 10:29 59.16210 -138.41740 36255 ft 382 kts 300°
2026-04-22 10:29 59.18827 -138.50751 36255 ft 382 kts 300°
2026-04-22 10:30 59.21435 -138.59766 36256 ft 382 kts 299°
2026-04-22 10:30 59.24040 -138.68805 36256 ft 382 kts 299°
2026-04-22 10:31 59.26201 -138.76332 36257 ft 382 kts 299°
2026-04-22 10:31 59.28795 -138.85397 36258 ft 382 kts 299°
2026-04-22 10:32 59.31382 -138.94475 36259 ft 382 kts 299°
2026-04-22 10:32 59.33963 -139.03568 36259 ft 382 kts 299°
2026-04-22 10:33 59.36535 -139.12666 36257 ft 382 kts 299°
2026-04-22 10:33 59.39104 -139.21787 36256 ft 382 kts 299°
2026-04-22 10:34 59.41666 -139.30924 36257 ft 382 kts 299°
2026-04-22 10:34 59.44223 -139.40076 36258 ft 382 kts 298°
2026-04-22 10:35 59.46773 -139.49244 36259 ft 382 kts 298°
2026-04-22 10:35 59.49316 -139.58432 36261 ft 382 kts 298°
2026-04-22 10:36 59.51591 -139.67848 36271 ft 382 kts 290°
2026-04-22 10:36 59.53292 -139.77752 36263 ft 381 kts 290°
2026-04-22 10:37 59.55788 -139.92626 36260 ft 381 kts 289°
2026-04-22 10:38 59.57452 -140.02532 36259 ft 381 kts 289°
2026-04-22 10:38 59.59107 -140.12461 36258 ft 381 kts 289°
2026-04-22 10:39 59.60753 -140.22400 36256 ft 381 kts 289°
2026-04-22 10:39 59.62393 -140.32349 36254 ft 381 kts 289°
2026-04-22 10:40 59.64040 -140.42400 36252 ft 382 kts 289°
2026-04-22 10:40 59.65668 -140.52390 36249 ft 382 kts 289°
2026-04-22 10:41 59.67288 -140.62384 36246 ft 381 kts 289°
2026-04-22 10:41 59.68899 -140.72383 36243 ft 381 kts 289°
2026-04-22 10:42 59.70502 -140.82390 36240 ft 382 kts 289°
2026-04-22 10:42 59.72102 -140.92429 36236 ft 382 kts 289°
2026-04-22 10:43 59.73692 -141.02469 36233 ft 382 kts 289°
2026-04-22 10:43 59.75274 -141.12514 36230 ft 381 kts 288°
2026-04-22 10:44 59.76847 -141.22564 36226 ft 381 kts 288°
2026-04-22 10:44 59.78413 -141.32622 36224 ft 381 kts 288°
2026-04-22 10:45 59.79971 -141.42689 36221 ft 381 kts 288°
2026-04-22 10:45 59.81520 -141.52763 36218 ft 381 kts 288°
2026-04-22 10:46 59.83060 -141.62833 36215 ft 381 kts 288°
2026-04-22 10:46 59.84596 -141.72933 36212 ft 381 kts 288°
2026-04-22 10:47 59.86119 -141.83014 36210 ft 381 kts 288°
2026-04-22 10:47 59.87640 -141.93133 36208 ft 382 kts 288°
2026-04-22 10:48 59.89152 -142.03261 36233 ft 382 kts 288°
2026-04-22 10:48 59.90667 -142.13474 36247 ft 381 kts 287°
2026-04-22 10:49 59.92153 -142.23548 36242 ft 382 kts 287°
2026-04-22 10:49 59.93645 -142.33721 36242 ft 383 kts 287°
2026-04-22 10:50 59.95131 -142.43919 36241 ft 383 kts 287°
2026-04-22 10:50 59.96608 -142.54120 36241 ft 382 kts 287°
2026-04-22 10:51 59.98079 -142.64339 36241 ft 383 kts 287°
2026-04-22 10:51 59.99553 -142.74651 36241 ft 384 kts 287°
2026-04-22 10:52 60.01007 -142.84884 36240 ft 380 kts 287°
2026-04-22 10:52 60.02444 -142.95058 36240 ft 380 kts 287°
2026-04-22 10:53 60.03866 -143.05193 36240 ft 382 kts 287°
2026-04-22 10:53 60.05302 -143.15495 36240 ft 382 kts 286°
2026-04-22 10:54 60.06721 -143.25739 36240 ft 381 kts 286°
2026-04-22 10:54 60.08133 -143.35991 36241 ft 382 kts 286°
2026-04-22 10:55 60.09538 -143.46267 36241 ft 382 kts 286°
2026-04-22 10:55 60.10935 -143.56550 36242 ft 383 kts 286°
2026-04-22 10:56 60.12325 -143.66849 36242 ft 383 kts 286°
2026-04-22 10:56 60.13708 -143.77168 36243 ft 383 kts 286°
2026-04-22 10:57 60.15083 -143.87489 36243 ft 383 kts 286°
2026-04-22 10:57 60.16452 -143.97839 36248 ft 384 kts 286°
2026-04-22 10:58 60.17815 -144.08210 36251 ft 384 kts 285°
2026-04-22 10:58 60.19169 -144.18587 36252 ft 384 kts 285°
2026-04-22 10:59 60.20514 -144.28962 36252 ft 383 kts 285°
2026-04-22 10:59 60.21848 -144.39321 36253 ft 383 kts 285°
2026-04-22 11:00 60.23174 -144.49692 36254 ft 383 kts 285°
2026-04-22 11:00 60.24489 -144.60065 36255 ft 383 kts 285°
2026-04-22 11:01 60.25798 -144.70458 36256 ft 383 kts 285°
2026-04-22 11:01 60.27095 -144.80786 36256 ft 383 kts 285°
2026-04-22 11:02 60.28388 -144.91193 36257 ft 383 kts 285°
2026-04-22 11:02 60.29673 -145.01609 36258 ft 383 kts 285°
2026-04-22 11:03 60.30951 -145.12031 36258 ft 383 kts 284°
2026-04-22 11:03 60.32219 -145.22484 36259 ft 384 kts 284°
2026-04-22 11:04 60.33483 -145.32935 36259 ft 383 kts 284°
2026-04-22 11:04 60.34741 -145.43405 36259 ft 384 kts 284°
2026-04-22 11:05 60.35981 -145.53835 36260 ft 384 kts 284°
2026-04-22 11:05 60.36601 -145.59079 36147 ft 381 kts 284°
2026-04-22 11:05 60.37213 -145.64274 35450 ft 380 kts 284°
2026-04-22 11:05 60.37823 -145.69456 34756 ft 378 kts 284°
2026-04-22 11:06 60.38426 -145.74609 34293 ft 375 kts 284°
2026-04-22 11:06 60.39637 -145.85006 34268 ft 383 kts 284°
2026-04-22 11:07 60.40855 -145.95549 34265 ft 385 kts 284°
2026-04-22 11:07 60.42055 -146.06020 34265 ft 384 kts 284°
2026-04-22 11:08 60.43260 -146.16599 34266 ft 383 kts 284°
2026-04-22 11:08 60.45330 -146.26497 34268 ft 382 kts 295°
2026-04-22 11:09 60.47719 -146.36129 34266 ft 382 kts 296°
2026-04-22 11:09 60.50126 -146.45730 34260 ft 382 kts 296°
2026-04-22 11:10 60.52478 -146.55370 34262 ft 381 kts 295°
2026-04-22 11:10 60.54832 -146.65004 34262 ft 381 kts 295°
2026-04-22 11:11 60.57181 -146.74630 34261 ft 380 kts 295°
2026-04-22 11:11 60.59122 -146.82636 34261 ft 380 kts 295°
2026-04-22 11:12 60.63074 -146.95098 34258 ft 381 kts 302°
2026-04-22 11:12 60.69129 -147.12806 34254 ft 380 kts 302°
2026-04-22 11:13 60.72541 -147.22933 34261 ft 380 kts 302°
2026-04-22 11:13 60.75547 -147.31840 34262 ft 381 kts 302°
2026-04-22 11:14 60.78543 -147.40747 33901 ft 377 kts 302°
2026-04-22 11:14 60.80018 -147.45148 33211 ft 373 kts 302°
2026-04-22 11:14 60.81484 -147.49539 32385 ft 374 kts 302°
2026-04-22 11:14 60.82952 -147.53941 31586 ft 374 kts 302°
2026-04-22 11:15 60.84408 -147.58310 30984 ft 373 kts 302°
2026-04-22 11:15 60.85900 -147.62803 30410 ft 381 kts 302°
2026-04-22 11:15 60.87410 -147.67356 29838 ft 386 kts 302°
2026-04-22 11:15 60.88907 -147.71869 29263 ft 383 kts 302°
2026-04-22 11:16 60.90421 -147.76449 28689 ft 389 kts 302°
2026-04-22 11:16 60.92077 -147.81476 28069 ft 390 kts 301°
2026-04-22 11:16 60.95122 -147.90729 26920 ft 391 kts 301°
2026-04-22 11:16 60.97273 -147.97300 26119 ft 392 kts 301°
2026-04-22 11:17 60.98782 -148.01909 25544 ft 387 kts 301°
2026-04-22 11:17 61.00286 -148.06515 24968 ft 386 kts 301°
2026-04-22 11:17 61.01774 -148.11084 24392 ft 382 kts 301°
2026-04-22 11:17 61.03251 -148.15632 23817 ft 380 kts 300°
2026-04-22 11:18 61.04714 -148.20143 23241 ft 376 kts 300°
2026-04-22 11:18 61.06160 -148.24607 22666 ft 372 kts 300°
2026-04-22 11:18 61.07590 -148.29035 22091 ft 369 kts 300°
2026-04-22 11:18 61.09005 -148.33420 21555 ft 364 kts 300°
2026-04-22 11:19 61.10403 -148.37772 21055 ft 362 kts 300°
2026-04-22 11:19 61.11792 -148.42102 20555 ft 360 kts 300°
2026-04-22 11:19 61.13169 -148.46395 20059 ft 357 kts 300°
2026-04-22 11:19 61.14323 -148.50881 19551 ft 351 kts 289°
2026-04-22 11:20 61.15194 -148.55577 19053 ft 348 kts 289°
2026-04-22 11:20 61.16040 -148.60325 18548 ft 346 kts 288°
2026-04-22 11:20 61.16849 -148.64994 18047 ft 343 kts 288°
2026-04-22 11:20 61.17649 -148.69625 17547 ft 340 kts 288°
2026-04-22 11:21 61.18454 -148.74239 17048 ft 340 kts 288°
2026-04-22 11:21 61.19261 -148.78841 16549 ft 339 kts 288°
2026-04-22 11:21 61.20066 -148.83431 16053 ft 338 kts 288°
2026-04-22 11:21 61.20865 -148.88021 15553 ft 339 kts 288°
2026-04-22 11:22 61.21661 -148.92612 15052 ft 338 kts 288°
2026-04-22 11:22 61.22450 -148.97192 14552 ft 337 kts 288°
2026-04-22 11:22 61.23237 -149.01760 14052 ft 336 kts 288°
2026-04-22 11:22 61.24021 -149.06306 13554 ft 335 kts 288°
2026-04-22 11:23 61.24516 -149.11008 13037 ft 332 kts 277°
2026-04-22 11:23 61.24834 -149.15754 12531 ft 331 kts 276°
2026-04-22 11:23 61.25126 -149.20501 12035 ft 331 kts 276°
2026-04-22 11:23 61.25404 -149.25254 11532 ft 332 kts 276°
2026-04-22 11:24 61.25680 -149.30021 11031 ft 335 kts 275°
2026-04-22 11:24 61.25962 -149.34851 10530 ft 337 kts 275°
2026-04-22 11:24 61.26251 -149.39706 10086 ft 343 kts 275°
2026-04-22 11:24 61.26550 -149.44737 10033 ft 354 kts 275°
2026-04-22 11:25 61.26847 -149.49778 10021 ft 349 kts 275°
2026-04-22 11:25 61.27133 -149.54749 9994 ft 341 kts 275°
2026-04-22 11:25 61.27403 -149.59526 9812 ft 324 kts 275°
2026-04-22 11:25 61.27659 -149.64062 9541 ft 309 kts 274°
2026-04-22 11:26 61.27908 -149.68455 8968 ft 305 kts 274°
2026-04-22 11:26 61.28504 -149.72677 8370 ft 307 kts 294°
2026-04-22 11:26 61.29568 -149.76517 8021 ft 305 kts 297°
2026-04-22 11:26 61.30690 -149.80405 8002 ft 319 kts 298°
2026-04-22 11:27 61.31845 -149.84324 7995 ft 313 kts 298°
2026-04-22 11:27 61.32970 -149.88110 7992 ft 302 kts 298°
2026-04-22 11:27 61.34047 -149.91754 7996 ft 289 kts 298°
2026-04-22 11:27 61.35331 -149.94831 7978 ft 277 kts 318°
2026-04-22 11:28 61.37009 -149.96715 7774 ft 274 kts 340°
2026-04-22 11:28 61.38804 -149.97814 7558 ft 265 kts 342°
2026-04-22 11:28 61.40561 -149.98878 7343 ft 259 kts 341°
2026-04-22 11:28 61.42250 -150.00047 7101 ft 254 kts 330°
2026-04-22 11:29 61.43558 -150.02304 6889 ft 239 kts 302°
2026-04-22 11:29 61.44155 -150.05381 6659 ft 223 kts 272°
2026-04-22 11:29 61.43995 -150.08464 6432 ft 208 kts 245°
2026-04-22 11:29 61.43246 -150.10923 6195 ft 197 kts 221°
2026-04-22 11:30 61.42113 -150.12445 5997 ft 194 kts 200°
2026-04-22 11:30 61.40780 -150.12969 5504 ft 201 kts 180°
2026-04-22 11:30 61.39369 -150.12441 4960 ft 212 kts 167°
2026-04-22 11:30 61.37907 -150.11603 4350 ft 222 kts 166°
2026-04-22 11:31 61.36444 -150.10759 3771 ft 210 kts 165°
2026-04-22 11:31 61.35103 -150.09994 3430 ft 192 kts 166°
2026-04-22 11:31 61.33841 -150.09279 3158 ft 183 kts 166°
2026-04-22 11:31 61.32632 -150.08595 2897 ft 177 kts 166°
2026-04-22 11:32 61.31459 -150.07932 2644 ft 173 kts 166°
2026-04-22 11:32 61.30304 -150.07279 2412 ft 171 kts 166°
2026-04-22 11:32 61.29164 -150.06634 2174 ft 170 kts 165°
2026-04-22 11:32 61.28027 -150.05992 1936 ft 168 kts 165°
2026-04-22 11:33 61.26897 -150.05355 1692 ft 169 kts 165°
2026-04-22 11:33 61.25761 -150.04710 1432 ft 170 kts 164°
2026-04-22 11:33 61.24629 -150.04062 1199 ft 167 kts 163°
2026-04-22 11:33 61.23509 -150.03418 974 ft 166 kts 162°
2026-04-22 11:34 61.22394 -150.02772 743 ft 166 kts 165°
2026-04-22 11:34 61.21291 -150.02157 511 ft 162 kts 165°
2026-04-22 11:34 61.20237 -150.01585 248 ft 149 kts 164°
2026-04-22 11:34 61.19324 -150.01073 162 ft 112 kts 165°
2026-04-22 11:35 61.18804 -150.00783 162 ft 45 kts 165°
2026-04-22 11:35 61.18672 -150.00534 161 ft 19 kts 83°
2026-04-22 11:35 61.18623 -150.00349 161 ft 12 kts 157°
2026-04-22 11:35 61.18553 -150.00305 161 ft 12 kts 163°
2026-04-22 11:36 61.18420 -150.00227 161 ft 26 kts 165°
2026-04-22 11:36 61.18212 -150.00109 161 ft 32 kts 164°
2026-04-22 11:36 61.18007 -149.99997 161 ft 29 kts 162°
2026-04-22 11:36 61.17832 -149.99899 161 ft 22 kts 165°
2026-04-22 11:37 61.17705 -149.99826 161 ft 16 kts 160°
2026-04-22 11:37 61.17670 -149.99687 161 ft 9 kts 80°
2026-04-22 11:37 61.17681 -149.99579 161 ft 6 kts 75°
2026-04-22 11:37 61.17697 -149.99471 161 ft 14 kts 71°
2026-04-22 11:38 61.17732 -149.99247 161 ft 16 kts 91°
2026-04-22 11:38 61.17665 -149.99074 161 ft 17 kts 107°
2026-04-22 11:38 61.17611 -149.98702 161 ft 16 kts 161°
2026-04-22 11:39 61.17528 -149.98638 161 ft 9 kts 159°
2026-04-22 11:39 61.17499 -149.98531 161 ft 7 kts 83°
2026-04-22 11:39 61.17504 -149.98455 161 ft 4 kts 82°
2026-04-22 11:39 61.17505 -149.98437 161 ft 0 kts 82°